Wind_Speed
39 43 43 41 38 35 31 29 27 26 26 26 27 28 27 26 25 24 22 20 17 14 13 11 5 4 6 7 9 11 11 10 5 4 3 3 5 5 5 5 8 13
38 44 45 42 40 38 34 31 29 26 24 26 29 29 28 27 26 25 23 20 18 16 14 13 8 1 3 5 7 9 10 12 8 4 4 3 3 4 5 6 7 12
42 44 45 42 41 39 36 34 32 28 25 25 29 31 29 28 27 26 23 20 19 18 16 15 11 4 1 2 4 7 8 9 10 7 5 4 2 3 4 5 6 10
41 44 45 42 41 39 36 34 32 30 27 27 30 32 31 30 29 27 23 19 18 16 15 16 11 7 4 1 2 4 6 7 9 9 8 7 5 2 2 4 5 8
43 44 43 41 41 39 36 34 32 30 29 29 32 32 32 32 29 25 22 20 16 12 13 16 12 9 8 5 1 2 4 5 6 8 9 9 8 6 3 2 4 7
48 45 43 41 40 39 36 35 33 31 29 29 32 33 32 32 28 24 22 21 18 13 13 16 14 10 9 8 4 1 3 3 4 6 8 8 9 8 5 3 3 5
47 45 44 43 41 40 38 35 32 31 29 31 34 35 33 31 27 24 24 23 21 16 13 15 16 11 9 10 9 4 0 2 3 5 6 7 9 10 8 5 2 2
49 45 44 43 42 42 40 37 34 32 31 33 36 36 34 31 28 27 27 26 24 19 14 15 17 13 10 10 11 9 5 1 1 3 4 5 7 9 10 9 6 2
50 48 45 43 43 43 41 40 39 37 34 35 37 37 36 33 31 31 30 28 27 23 18 16 16 14 12 11 11 12 10 5 1 1 3 4 5 6 9 11 10 7
48 48 47 46 46 45 44 44 44 40 37 36 38 40 38 36 35 34 33 31 30 28 24 19 16 15 14 13 12 12 12 10 6 3 1 3 3 4 6 9 11 10
46 47 48 47 46 46 46 48 49 46 40 38 40 41 41 40 39 37 36 34 33 31 27 21 18 17 17 16 15 13 13 13 11 8 4 3 3 2 3 6 9 10
50 51 50 47 46 47 48 50 53 51 44 40 42 43 43 43 42 39 38 37 35 32 27 23 21 21 20 19 18 16 16 15 15 13 9 6 4 2 1 3 6 7
58 57 54 49 48 50 51 52 54 53 47 44 45 45 45 45 43 41 40 39 36 32 29 26 25 23 22 21 19 19 19 17 17 17 14 10 7 5 2 1 3 4
64 62 59 54 52 52 52 53 55 54 50 49 49 47 46 47 45 43 42 40 37 35 33 33 31 27 24 24 22 20 18 17 17 19 18 14 10 8 6 4 1 1
66 65 62 59 56 53 53 54 55 52 50 51 50 48 48 49 47 45 43 41 39 37 36 38 37 32 30 31 30 26 23 19 18 20 21 18 14 12 10 8 5 2
61 62 61 59 56 53 54 56 55 51 50 52 51 49 50 50 48 46 45 42 39 36 35 36 36 34 34 35 35 33 31 25 20 21 23 22 19 17 14 12 9 6
54 57 58 57 55 53 55 58 57 54 52 53 52 51 51 51 50 48 46 43 39 35 35 36 36 36 36 36 36 36 35 31 24 22 24 25 24 21 18 15 12 9
47 52 56 56 56 56 56 58 59 58 56 55 55 53 53 53 52 49 46 44 40 36 37 38 38 38 38 36 35 36 36 35 30 26 25 26 27 26 22 17 14 12
41 47 53 56 57 58 57 59 60 60 59 59 58 56 55 55 54 50 47 46 41 35 35 38 39 40 40 37 34 34 36 37 36 31 28 26 28 28 25 21 20 19
38 43 49 54 58 59 59 60 61 61 61 61 60 57 56 55 54 50 47 46 42 35 33 35 37 38 39 37 35 35 36 39 39 35 31 29 29 29 28 27 27 25
35 40 46 53 57 59 60 61 62 62 63 64 62 58 58 57 54 50 48 46 42 35 32 33 33 33 36 37 36 35 36 38 39 37 34 32 30 30 32 32 31 28
31 37 44 51 56 60 61 61 62 63 64 65 63 60 61 60 55 52 50 45 40 35 33 32 29 28 33 39 38 36 36 38 39 38 36 33 32 32 35 35 33 30
26 32 40 48 54 58 60 61 63 64 65 66 64 62 64 62 56 54 51 44 38 36 34 32 29 28 34 40 40 39 40 40 40 38 34 32 32 34 37 37 34 32
23 26 33 43 51 56 59 61 63 65 66 68 65 63 65 63 58 56 53 45 39 36 33 30 30 31 34 39 41 42 42 41 40 37 34 31 32 33 36 36 35 33
21 23 28 35 45 53 57 60 62 65 67 68 67 64 65 64 61 59 56 48 40 35 32 30 31 32 33 35 37 40 41 40 39 38 36 34 33 34 35 35 35 35
22 21 24 29 37 46 54 58 61 64 67 68 68 66 65 64 64 62 59 52 43 36 34 34 34 34 34 34 37 39 40 39 40 38 34 33 34 35 36 35 35 36
Wind_Direction
252 249 247 248 245 237 238 245 243 241 241 239 238 239 242 247 247 246 249 256 259 256 256 260 271 3 342 337 359 6 4 359 327 269 283 279 256 242 224 219 218 207
241 246 246 245 243 238 237 239 234 234 238 234 232 235 238 242 244 243 245 252 257 251 244 247 249 307 359 332 349 8 12 12 3 315 300 290 252 238 221 215 214 206
237 243 243 241 240 237 235 233 229 230 238 235 229 230 234 238 241 240 241 245 252 251 239 233 236 237 327 333 356 19 23 22 19 4 345 327 281 248 224 215 210 206
235 240 240 238 236 234 233 232 227 224 230 230 225 225 228 233 237 237 236 237 245 250 231 217 221 229 236 272 19 31 33 34 29 21 10 357 348 332 246 227 216 213
230 236 239 235 232 231 229 226 222 220 223 226 226 224 225 230 234 232 230 229 230 232 217 205 205 218 231 241 269 31 41 44 35 31 24 9 2 360 332 263 233 226
229 233 236 233 229 225 222 219 219 220 222 225 226 225 224 227 229 224 222 221 215 212 212 209 206 211 226 234 236 310 41 52 40 35 36 31 23 16 3 337 268 241
228 228 230 231 226 221 217 215 214 215 217 221 223 223 222 223 222 218 215 213 208 208 213 211 209 214 227 230 229 235 292 56 40 29 36 42 44 39 29 16 357 261
227 223 223 225 224 221 218 214 209 208 213 220 224 223 221 218 215 213 211 208 206 208 208 203 204 214 228 230 230 236 239 220 36 21 24 34 46 52 47 39 36 35
227 223 221 222 223 221 218 214 210 209 214 222 225 223 220 215 211 210 208 206 208 210 211 210 210 219 230 234 237 243 244 238 234 359 5 13 31 51 56 50 46 44
224 224 224 225 225 224 219 213 210 212 219 225 224 220 216 212 209 209 207 208 211 214 216 218 216 219 227 232 238 245 248 247 242 233 284 339 360 30 58 58 52 50
219 219 222 224 225 226 221 214 210 213 221 226 222 218 214 209 208 209 208 210 214 215 215 217 217 216 220 228 234 240 244 246 245 241 251 283 307 352 48 62 55 51
221 216 217 220 223 225 222 216 212 214 222 224 218 216 212 208 209 210 209 212 215 214 213 216 220 219 220 226 232 238 243 245 246 244 248 255 255 271 8 78 65 51
227 224 223 223 224 225 223 219 215 217 223 221 216 216 212 207 209 210 210 213 214 213 214 217 222 224 224 228 231 236 243 249 251 249 248 247 236 231 239 126 84 55
231 230 229 226 225 225 223 219 217 219 222 218 214 215 211 208 209 210 212 215 213 214 217 220 223 227 231 234 235 237 243 251 255 254 250 244 232 223 225 218 170 60
231 231 230 226 225 225 222 218 218 219 218 215 214 213 209 208 209 210 213 217 217 218 220 221 225 233 239 243 245 248 251 254 257 257 252 242 230 225 225 223 222 232
230 229 228 225 223 224 223 218 217 218 216 214 213 211 209 208 209 211 214 217 219 222 225 226 230 236 240 245 250 253 254 256 258 257 254 243 229 224 223 223 227 238
229 227 226 222 219 221 223 221 218 218 217 214 213 210 208 208 210 212 214 215 218 224 229 232 234 237 240 244 248 251 251 251 252 255 255 247 235 228 224 223 230 247
229 226 224 220 216 217 221 221 220 219 216 214 212 210 208 208 209 211 212 213 216 225 231 232 230 233 239 243 246 248 248 246 246 251 256 252 242 236 232 231 239 251
231 226 222 218 216 215 217 218 218 217 215 212 211 210 208 207 208 210 212 213 217 225 231 230 226 228 234 240 243 246 246 243 243 247 254 254 248 241 238 239 246 251
232 225 221 217 215 214 214 216 215 214 212 211 210 210 209 207 208 212 213 212 217 224 227 225 225 229 234 239 242 243 242 240 240 244 248 251 250 244 241 243 247 251
233 227 221 217 214 213 214 214 213 212 211 209 209 210 208 207 210 214 213 211 216 223 224 221 225 231 234 236 240 242 239 237 238 242 246 249 248 243 241 244 247 251
237 229 222 217 214 213 214 213 212 211 210 208 209 209 208 208 212 213 211 213 219 225 224 221 223 229 230 232 238 240 238 237 238 240 243 248 246 239 238 243 247 250
247 234 225 219 215 213 213 213 212 211 209 208 209 210 209 210 212 212 212 215 222 226 226 223 224 229 230 230 234 236 237 239 239 238 241 246 245 240 238 243 247 249
255 244 232 223 217 215 214 213 213 212 210 209 210 211 211 212 213 213 214 217 222 228 230 228 230 235 235 233 232 233 236 239 238 235 236 240 242 240 239 242 245 249
244 249 242 230 221 218 216 215 214 213 212 211 211 212 212 213 213 214 216 218 223 227 229 230 232 233 234 237 237 236 239 239 235 232 233 236 240 240 241 245 249 252
229 239 244 239 229 222 220 218 216 215 214 213 213 213 214 214 214 215 216 217 220 221 221 225 230 229 228 234 238 241 243 239 231 229 232 236 241 243 244 247 251 254
Height
10955 10952 10952 10954 10956 10958 10959 10960 10962 10963 10964 10966 10969 10971 10972 10973 10975 10977 10979 10980 10981 10983 10983 10983 10983 10982 10981 10980 10978 10977 10976 10975 10974 10974 10973 10972 10972 10972 10973 10973 10974 10975
10948 10945 10946 10950 10952 10954 10955 10957 10958 10959 10960 10963 10966 10967 10969 10970 10972 10975 10976 10978 10979 10981 10982 10982 10982 10983 10982 10980 10979 10977 10976 10975 10975 10974 10973 10972 10972 10972 10972 10973 10973 10974
10941 10940 10941 10945 10947 10949 10951 10952 10954 10957 10958 10960 10962 10964 10966 10968 10969 10972 10974 10976 10977 10979 10980 10981 10982 10982 10982 10982 10980 10979 10977 10976 10975 10975 10974 10973 10972 10972 10971 10972 10972 10973
10938 10937 10938 10941 10942 10945 10947 10949 10951 10953 10955 10956 10957 10959 10962 10964 10966 10969 10972 10974 10975 10977 10978 10980 10980 10981 10981 10981 10981 10980 10978 10977 10976 10975 10974 10973 10972 10971 10970 10970 10971 10972
10933 10933 10935 10937 10939 10941 10944 10946 10947 10949 10951 10952 10953 10955 10959 10961 10964 10967 10970 10972 10974 10975 10976 10978 10979 10979 10979 10979 10980 10979 10978 10977 10977 10975 10974 10973 10971 10970 10970 10969 10970 10971
10928 10930 10931 10933 10936 10938 10940 10942 10944 10945 10948 10951 10953 10955 10958 10959 10962 10965 10968 10970 10972 10973 10975 10976 10977 10978 10978 10978 10978 10977 10977 10977 10976 10975 10974 10972 10971 10971 10970 10969 10969 10970
10923 10926 10927 10929 10931 10934 10936 10939 10941 10943 10946 10949 10952 10954 10955 10957 10960 10963 10965 10967 10969 10971 10973 10974 10976 10977 10977 10977 10976 10976 10976 10976 10975 10974 10973 10973 10972 10971 10971 10970 10969 10969
10918 10920 10922 10924 10926 10929 10932 10936 10938 10941 10944 10946 10949 10951 10953 10955 10957 10960 10963 10965 10967 10969 10970 10972 10974 10975 10975 10976 10975 10975 10975 10975 10975 10974 10973 10973 10972 10971 10971 10970 10969 10969
10911 10914 10917 10919 10921 10925 10928 10932 10935 10938 10940 10942 10945 10948 10950 10952 10955 10957 10960 10963 10965 10967 10969 10971 10972 10973 10974 10974 10974 10974 10974 10975 10974 10974 10973 10973 10972 10971 10971 10970 10969 10969
10904 10908 10911 10914 10916 10920 10924 10928 10931 10934 10935 10937 10940 10943 10946 10949 10952 10955 10958 10960 10962 10964 10967 10969 10971 10971 10972 10972 10972 10972 10972 10973 10973 10973 10973 10972 10972 10971 10970 10970 10969 10969
10898 10903 10906 10909 10911 10914 10918 10923 10926 10929 10929 10931 10935 10939 10942 10945 10949 10952 10956 10958 10960 10962 10965 10967 10968 10969 10970 10970 10970 10970 10970 10970 10971 10971 10971 10971 10971 10970 10969 10969 10969 10969
10893 10897 10900 10904 10907 10909 10913 10918 10922 10924 10925 10928 10932 10935 10939 10943 10946 10950 10953 10955 10958 10960 10963 10965 10966 10967 10967 10967 10967 10968 10968 10968 10969 10969 10970 10970 10970 10969 10968 10968 10968 10968
10887 10891 10895 10899 10902 10905 10910 10914 10918 10921 10922 10925 10928 10931 10936 10940 10943 10947 10950 10953 10955 10958 10960 10963 10964 10964 10965 10965 10965 10965 10965 10966 10967 10967 10968 10969 10969 10968 10968 10967 10967 10968
10881 10885 10890 10894 10898 10902 10906 10910 10913 10916 10918 10921 10924 10928 10933 10937 10940 10943 10946 10949 10952 10954 10957 10960 10961 10961 10962 10962 10963 10963 10963 10964 10965 10966 10967 10967 10967 10967 10967 10967 10967 10967
10876 10880 10884 10889 10895 10900 10903 10906 10909 10912 10914 10917 10921 10925 10929 10933 10937 10940 10942 10945 10948 10951 10954 10956 10957 10959 10959 10960 10960 10961 10962 10962 10963 10964 10965 10966 10966 10966 10966 10966 10966 10966
10871 10875 10879 10885 10892 10898 10901 10903 10905 10908 10911 10914 10918 10922 10926 10930 10933 10936 10939 10942 10945 10948 10951 10952 10954 10955 10956 10957 10958 10959 10960 10960 10961 10961 10962 10963 10964 10964 10964 10964 10964 10965
10865 10870 10875 10881 10888 10893 10897 10899 10902 10904 10907 10910 10914 10919 10922 10926 10930 10933 10936 10939 10942 10945 10947 10949 10950 10951 10952 10954 10955 10956 10957 10958 10959 10959 10959 10959 10960 10961 10961 10961 10962 10963
10860 10864 10869 10875 10882 10887 10891 10895 10898 10899 10902 10906 10910 10914 10917 10921 10925 10929 10933 10936 10939 10941 10943 10945 10947 10947 10948 10949 10951 10952 10953 10955 10956 10956 10956 10956 10957 10958 10958 10959 10960 10961
10855 10858 10862 10868 10874 10879 10883 10886 10890 10893 10897 10902 10905 10909 10913 10917 10921 10926 10929 10932 10935 10937 10939 10940 10942 10942 10943 10944 10946 10948 10950 10951 10952 10953 10953 10953 10954 10954 10955 10956 10957 10958
10851 10853 10857 10861 10867 10871 10874 10878 10882 10887 10891 10896 10900 10905 10909 10914 10918 10921 10924 10928 10930 10932 10934 10936 10937 10938 10939 10941 10942 10944 10946 10947 10948 10949 10950 10950 10950 10951 10952 10953 10954 10955
10848 10849 10852 10855 10860 10864 10868 10872 10876 10881 10886 10891 10895 10900 10905 10909 10912 10916 10919 10922 10925 10927 10929 10931 10933 10935 10936 10937 10938 10940 10942 10943 10944 10945 10946 10946 10947 10948 10948 10949 10951 10952
10846 10847 10849 10851 10855 10859 10863 10867 10871 10875 10880 10885 10890 10894 10899 10903 10906 10910 10914 10917 10920 10921 10924 10927 10930 10932 10932 10933 10934 10936 10938 10939 10940 10941 10942 10943 10943 10944 10945 10946 10947 10949
10845 10846 10847 10849 10851 10855 10858 10862 10866 10870 10875 10880 10884 10889 10893 10897 10901 10905 10909 10912 10914 10915 10918 10922 10925 10927 10928 10929 10930 10932 10933 10935 10936 10937 10938 10939 10939 10940 10941 10942 10943 10944
10843 10844 10846 10848 10850 10852 10855 10859 10862 10866 10871 10875 10879 10883 10887 10891 10895 10899 10903 10906 10908 10910 10914 10918 10920 10922 10923 10924 10925 10927 10928 10930 10931 10933 10934 10935 10935 10936 10937 10938 10940 10941
10842 10843 10844 10846 10849 10851 10853 10856 10860 10863 10867 10871 10875 10879 10882 10885 10889 10893 10896 10900 10903 10906 10910 10912 10914 10916 10917 10918 10920 10922 10924 10925 10927 10928 10929 10930 10931 10932 10933 10934 10935 10936
10840 10841 10842 10844 10847 10849 10851 10854 10858 10861 10864 10868 10871 10874 10878 10881 10884 10887 10890 10894 10897 10900 10903 10904 10907 10910 10911 10913 10915 10917 10919 10921 10922 10923 10925 10927 10926 10926 10927 10929 10930 10931